Location: Foligno
(42.9600°N, 12.7050°E)
Time: 21:15:48
(UTC+01:00)

ISS - Pass Details

Date: 14 January 2018
Orbit: 402 x 407 km, 51.6° (Epoch: 17 January)

Event Time Altitude Azimuth Distance (km) Brightness Sun altitude
Exits shadow 06:16:45 31° 277° (W) 733 -3.1 -14.6°
Maximum altitude 06:17:57 51° 219° (SW) 518 -3.5 -14.4°
Drops below altitude 10° 06:21:08 10° 142° (SE) 1,458 -0.2 -13.8°
Sets 06:23:14 0° 137° (SE) 2,315 1.1 -13.4°
